Regional Weather Roundup
Issued by NWS Midland/Odessa, TX

Skip options and go directly to product.
Home | Oldest Version | Previous Version | Current Version | All | Text Only | Save Text | Print | Product List | Glossary On

Skip product version selection by date and time.   
603
ASUS44 KMAF 280210
RWRMAF
MIDLAND AREA WEATHER ROUNDUP
NATIONAL WEATHER SERVICE MIDLAND TX
900 PM CDT THU AUG 27 2015

...IN SOUTHWEST TEXAS AND SOUTHEAST NEW MEXICO...

CITY           SKY/WX    TMP DP  RH WIND       PRES   REMARKS
ALPINE         PTCLDY    82  46  28 SE6       30.17S
ANDREWS        FAIR      83  49  31 SE6       30.05R
ARTESIA        MOCLDY    88  57  35 N3        30.05S
BIG SPRING     PTCLDY    81  53  38 SE6       30.03R
CARLSBAD       MOCLDY    90  51  26 W9        30.01R
DRYDEN           N/A     91  57  31 VRB7      30.00R
FORT STOCKTON  CLEAR     88  51  28 SE14      30.03R
GUAD PASS      MOCLDY    79  49  34 N10       30.21R
HOBBS          MOCLDY    82  45  26 CALM      30.07R
MARFA          MOCLDY    77  50  38 SE8       30.17R
MIDLAND AIRPK  PTCLDY    90  50  25 SE7       30.03R
MIDLAND INTL   PTCLDY    87  52  29 S6        30.02S
ODESSA         MOCLDY    86  52  30 SE6       30.04R
PECOS          PTCLDY    89  49  25 E8        29.98R
PRESIDIO       NOT AVBL
SEMINOLE       MOCLDY    84  44  24 S6        30.05S
SNYDER         CLEAR     87  53  31 SE8       30.02R
WINK           PTCLDY    91  47  21 SE12      29.98S
$$
...OTHER STATIONS IN TEXAS...

CITY           SKY/WX    TMP DP  RH WIND       PRES   REMARKS
ABILENE        CLEAR     84  60  44 SE9       30.00S
AMARILLO       CLOUDY    81  54  39 S16       30.03R
AUSTIN         MOCLDY    85  58  39 SE12      29.98R
BROWNSVILLE    MOCLDY    80  69  69 E5        29.99R
CORPUS CHRISTI MOCLDY    82  66  58 S8        29.98R
DALLAS FTW     MOCLDY    86  61  42 SE12      29.96S
DEL RIO        CLEAR     90  60  36 SE7       29.94R
EL PASO        CLOUDY    87  55  33 SW7       30.06R
HOUSTON INT    MOCLDY    77  68  73 S3        29.97S
LUBBOCK        MOCLDY    84  49  29 S8        30.03S
SAN ANGELO     MOCLDY    87  56  34 SE6       29.98S
SAN ANTONIO    PTCLDY    86  58  38 SE9       29.99R
WACO           PTCLDY    85  59  41 E9        29.98R
WICHITA FALLS  NOT AVBL
$$
...OTHER LOCATIONS IN NEW MEXICO...

CITY           SKY/WX    TMP DP  RH WIND       PRES   REMARKS
ALAMAGORDO     MOCLDY    84  50  30 SW3       30.09S
ALBUQUERQUE    MOCLDY    79  56  45 SW10      30.16F
CANNON AFB     PTCLDY    75  59  57 SW7       30.07S
CLOVIS         MOCLDY    73  55  53 SW3       30.09R
HOLLOMAN AFB   CLOUDY    84  56  37 SW7       30.07R
ROSWELL        CLOUDY    83  58  42 W6        30.05S
RUIDOSO        MOCLDY    63  55  77 MISG      30.32S
SANTA FE       MOCLDY    74  46  36 W6        30.21R
TRUTH OR CONSE CLOUDY    81  54  39 W12       30.13S
TUCUMCARI      MOCLDY    83  54  36 SW8       30.04S THUNDER
$$

USA.gov is the U.S. government's official web portal to all federal, state and local government web resources and services.